Jackson, TN

7:44 AM CST on November 12, 2019 (GMT -0600)
McKellar-Sipes Regional

Weather History for KMKL - September, 2019

Change the Weather History Date:

Thursday, September 26, 2019

  Actual Average Record
Temperature  
Mean Temperature 72 °F 67 °F  
Max Temperature 78 °F 80 °F 93 °F (1958)
Min Temperature 67 °F 55 °F 36 °F (2001)
Degree Days  
Heating Degree Days 0 2  
Month to date heating degree days 0 15  
Since 1 July heating degree days 0 15  
Cooling Degree Days 8 5  
Month to date cooling degree days 343 205  
Year to date cooling degree days 1804 1628  
Growing Degree Days 22 (Base 50)    
Moisture  
Dew Point 70 °F    
Average Humidity 95    
Maximum Humidity 100    
Minimum Humidity 82    
Precipitation  
Precipitation 0.10 in 0.13 in 7.89 in (2002)
Month to date precipitation 1.07 2.84  
Year to date precipitation 47.78 38.71  
Sea Level Pressure  
Sea Level Pressure 29.93 in    
Wind  
Wind Speed 2 mph ()    
Max Wind Speed 12 mph    
Max Gust Speed 15 mph    
Visibility 6.2 miles    
Events Fog , Rain , Thunderstorm    
T = Trace of Precipitation, MM = Missing Value Source: Averaged Metar Reports

Daily Weather History Graph

Daily Weather History Graph

Search for Another Location

Airport or City:

Astronomy

Sep. 26, 2019 Rise Set
Actual Time 6:46 AM CDT 6:46 PM CDT
Civil Twilight 6:21 AM CDT 7:12 PM CDT
Nautical Twilight 5:51 AM CDT 7:41 PM CDT
Astronomical Twilight 5:21 AM CDT 8:11 PM CDT
Moon 4:01 AM CDT (9/26) 5:53 PM CDT (9/26)
Length of Visible Light 12h 51m
Length of Day
12h 00m
Waning Crescent, 6% of the Moon is Illuminated
Sep 26
Waning Crescent
Sep 28
New
Oct 5
First Quarter
Oct 13
Full
Oct 21
Last Quarter

Hourly Weather History & Observations

Time (CDT) Temp. Dew Point Humidity Pressure Visibility Wind Dir Wind Speed Gust Speed Precip Events Conditions
12:53 AM 71.1 °F 70.0 °F 96% 29.86 in 9.0 mi Calm Calm - N/A   Clear
1:33 AM 69.1 °F 69.1 °F 100% 29.89 in 1.8 mi Calm Calm - N/A   Clear
1:43 AM 69.1 °F 68.0 °F 96% 29.89 in 0.5 mi Calm Calm - N/A Fog Fog
1:49 AM 69.8 °F 69.8 °F 100% 29.89 in 0.5 mi Calm Calm - N/A Fog Fog
1:53 AM 68.0 °F 68.0 °F 100% 29.87 in 0.5 mi Calm Calm - N/A Fog Fog
2:00 AM 68.0 °F 66.9 °F 96% 29.88 in 0.2 mi Calm Calm - N/A Fog Fog
2:26 AM 68.0 °F 68.0 °F 100% 29.89 in 0.5 mi Calm Calm - N/A Fog Fog
2:40 AM 69.1 °F 69.1 °F 100% 29.89 in 1.0 mi NNE 3.5 mph - N/A   Overcast
2:49 AM 69.8 °F 69.8 °F 100% 29.89 in 3.0 mi Calm Calm - N/A   Overcast
2:53 AM 70.0 °F 69.1 °F 97% 29.88 in 4.0 mi Calm Calm - N/A   Overcast
3:53 AM 70.0 °F 70.0 °F 100% 29.90 in 6.0 mi Calm Calm - N/A   Mostly Cloudy
4:02 AM 70.0 °F 70.0 °F 100% 29.91 in 6.0 mi North 3.5 mph - N/A   Overcast
4:34 AM 70.0 °F 69.1 °F 97% 29.91 in 1.8 mi Calm Calm - N/A   Mostly Cloudy
4:53 AM 69.1 °F 69.1 °F 100% 29.91 in 0.8 mi Calm Calm - N/A   Overcast
5:18 AM 69.1 °F 69.1 °F 100% 29.92 in 0.8 mi Calm Calm - N/A   Overcast
5:28 AM 69.1 °F 69.1 °F 100% 29.92 in 1.8 mi Calm Calm - N/A   Mostly Cloudy
5:43 AM 69.1 °F 68.0 °F 96% 29.92 in 3.0 mi Calm Calm - N/A   Scattered Clouds
5:53 AM 69.1 °F 68.0 °F 96% 29.92 in 4.0 mi Calm Calm - N/A   Mostly Cloudy
6:53 AM 70.0 °F 70.0 °F 100% 29.94 in 6.0 mi Calm Calm - N/A   Scattered Clouds
7:53 AM 71.1 °F 71.1 °F 100% 29.96 in 3.0 mi West 3.5 mph - 0.01 in Rain Light Rain
8:10 AM 71.1 °F 71.1 °F 100% 29.98 in 5.0 mi SW 5.8 mph - 0.01 in Rain , Thunderstorm Light Rain
8:25 AM 71.1 °F 71.1 °F 100% 29.97 in 7.0 mi WSW 3.5 mph - 0.02 in Rain Light Rain
8:53 AM 72.0 °F 71.1 °F 97% 29.96 in 5.0 mi WNW 3.5 mph - 0.04 in Rain Light Rain
9:53 AM 72.0 °F 70.0 °F 93% 29.97 in 7.0 mi WNW 4.6 mph - 0.04 in Rain Light Rain
10:53 AM 73.0 °F 72.0 °F 96% 29.97 in 10.0 mi North 9.2 mph - 0.01 in   Scattered Clouds
11:08 AM 73.9 °F 71.1 °F 91% 29.99 in 10.0 mi NNW 8.1 mph - N/A   Mostly Cloudy
11:53 AM 73.9 °F 71.1 °F 91% 29.99 in 10.0 mi North 6.9 mph - N/A   Overcast
12:23 PM 75.0 °F 72.0 °F 90% 30.00 in 10.0 mi North 6.9 mph - N/A   Overcast
12:53 PM 72.0 °F 70.0 °F 93% 29.99 in 9.0 mi North 9.2 mph - N/A   Overcast
1:53 PM 71.1 °F 68.0 °F 90% 29.97 in 10.0 mi NNE 6.9 mph - N/A   Overcast
2:53 PM 75.0 °F 70.0 °F 84% 29.95 in 10.0 mi NE 3.5 mph - N/A   Mostly Cloudy
3:41 PM 77.0 °F 71.1 °F 82% 29.95 in 10.0 mi Variable 4.6 mph - N/A   Overcast
3:53 PM 75.9 °F 71.1 °F 85% 29.94 in 10.0 mi ESE 3.5 mph - N/A   Overcast
4:02 PM 75.9 °F 71.1 °F 85% 29.94 in 10.0 mi East 3.5 mph - N/A   Overcast
4:53 PM 77.0 °F 71.1 °F 82% 29.93 in 10.0 mi NE 4.6 mph - N/A   Mostly Cloudy
5:53 PM 75.9 °F 71.1 °F 85% 29.93 in 10.0 mi NNE 8.1 mph - N/A   Clear
6:53 PM 73.0 °F 71.1 °F 93% 29.93 in 10.0 mi NE 4.6 mph - N/A   Overcast
7:53 PM 72.0 °F 70.0 °F 93% 29.93 in 10.0 mi NE 4.6 mph - N/A   Clear
8:53 PM 70.0 °F 68.0 °F 93% 29.94 in 10.0 mi East 4.6 mph - N/A   Clear
9:53 PM 69.1 °F 68.0 °F 96% 29.94 in 10.0 mi Calm Calm - N/A   Scattered Clouds
10:36 PM 68.0 °F 66.9 °F 96% 29.95 in 9.0 mi East 3.5 mph - N/A   Clear
10:53 PM 69.1 °F 68.0 °F 96% 29.94 in 10.0 mi Calm Calm - N/A   Clear
11:53 PM 68.0 °F 66.9 °F 96% 29.92 in 10.0 mi East 3.5 mph - N/A   Clear